FW8647 Weather Reports


time (UTC)temp
C
wind
direction
speed
KPH
gust
KPH
rain 1hr
cm
rain 24hr
cm
rain mn
cm
humidity
%
barometer
mb
20260505070757 15 204 4.8 8.0 0.00 0.00 0.00 80 1003.1
20260505065754 15 198 9.7 17.7 0.00 0.00 0.00 80 1003.1
20260505064749 15 201 8.0 14.5 0.00 0.00 0.00 80 1003.2
20260505063744 14 201 8.0 12.9 0.00 0.00 0.00 81 1003.5
20260505062742 15 203 11.3 16.1 0.00 0.00 0.00 81 1003.5
20260505061742 15 202 8.0 16.1 0.00 0.00 0.00 79 1003.6
20260505060737 15 191 8.0 9.7 0.00 0.00 0.00 79 1003.3
20260505055735 15 200 11.3 17.7 0.00 0.00 0.00 78 1003.7
20260505054735 15 195 9.7 11.3 0.00 0.00 0.00 77 1003.8
20260505053732 15 196 8.0 12.9 0.00 0.00 0.00 78 1004.1
20260505052731 15 187 8.0 12.9 0.00 0.00 0.00 78 1004.2
20260505051730 15 204 8.0 11.3 0.00 0.00 0.00 79 1004.5
20260505050726 15 186 6.4 11.3 0.00 0.00 0.00 80 1004.3
20260505041723 15 188 8.0 9.7 0.00 0.00 0.00 77 1004.0
20260505040718 15 190 6.4 8.0 0.00 0.00 0.00 77 1003.8
20260505035717 15 187 8.0 9.7 0.00 0.05 0.05 78 1004.0
20260505034715 15 181 8.0 16.1 0.30 0.05 0.05 78 1004.2
20260505033714 15 189 6.4 8.0 0.30 0.05 0.05 79 1004.7
20260505032710 -17 0.0 0.0 0.00 0.00 0.00 1004.8
20260505031710 -17 0.0 0.0 0.00 0.00 0.00 1005.1
20260505030708 -17 0.0 0.0 0.00 0.00 0.00 1004.6
20260505025706 -17 0.0 0.0 0.00 0.00 0.00 1005.4
20260505024702 -17 0.0 0.0 0.00 0.00 0.00 1005.2
20260505023657 15 270 8.0 12.9 0.00 0.00 0.00 79 1005.2
20260505022657 15 204 11.3 14.5 0.00 0.00 0.00 77 1004.9
20260505021656 16 188 14.5 24.1 0.00 0.00 0.00 75 1004.9
20260505020655 16 173 8.0 9.7 0.00 0.00 0.00 74 1004.6
20260505015654 16 174 8.0 11.3 0.00 0.00 0.00 74 1004.2
20260505014653 16 191 8.0 11.3 0.00 0.00 0.00 73 1004.4
20260505013653 16 177 8.0 11.3 0.00 0.00 0.00 72 1004.4
20260505012649 16 187 8.0 12.9 0.00 0.00 0.00 69 1004.2
20260505011647 17 140 8.0 12.9 0.00 0.00 0.00 64 1004.3
20260505010645 17 198 8.0 14.5 0.00 0.00 0.00 63 1004.2
20260505005643 17 170 8.0 11.3 0.00 0.00 0.00 60 1004.2
20260505004638 17 157 8.0 14.5 0.00 0.00 0.00 59 1004.2
20260505003637 -17 0.0 0.0 0.00 0.00 0.00 1004.2
20260505002637 17 189 6.4 11.3 0.00 0.00 0.00 57 1004.1
20260505001632 18 217 6.4 9.7 0.00 0.00 0.00 56 1004.2
20260505000632 18 217 6.4 9.7 0.00 0.00 0.00 56 1004.1
20260504235632 18 204 8.0 11.3 0.00 0.00 0.00 55 1004.1
20260504234632 18 172 8.0 16.1 0.00 0.00 0.00 54 1004.1
20260504233630 18 204 8.0 9.7 0.00 0.00 0.00 53 1004.5
20260504232631 18 183 8.0 11.3 0.00 0.00 0.00 53 1004.5
20260504231630 18 193 12.9 17.7 0.00 0.00 0.00 51 1004.5
20260504230628 18 200 9.7 12.9 0.00 0.00 0.00 50 1004.2
20260504225625 19 187 11.3 16.1 0.00 0.00 0.00 49 1004.8
20260504224623 19 219 11.3 17.7 0.00 0.00 0.00 48 1004.8
20260504223623 19 202 11.3 17.7 0.00 0.00 0.00 47 1004.8
20260504222622 19 209 11.3 17.7 0.00 0.00 0.00 48 1004.9
20260504221622 19 204 16.1 20.9 0.00 0.00 0.00 47 1005.1
20260504220621 20 215 17.7 20.9 0.00 0.00 0.00 47 1005.1
20260504215620 19 183 20.9 29.0 0.00 0.00 0.00 47 1004.9
20260504214620 20 205 17.7 32.2 0.00 0.00 0.00 49 1004.9
20260504213619 20 188 22.5 35.4 0.00 0.00 0.00 48 1005.0
20260504212617 20 206 22.5 27.4 0.00 0.00 0.00 47 1005.1
20260504211612 20 186 24.1 35.4 0.00 0.00 0.00 48 1005.0
20260504210612 20 158 19.3 25.7 0.00 0.00 0.00 47 1005.1
20260504205612 20 188 29.0 35.4 0.00 0.00 0.00 49 1005.0
20260504204607 19 129 25.7 46.7 0.00 0.00 0.00 49 1005.0
20260504203604 19 225 27.4 37.0 0.00 0.00 0.00 49 1004.8
20260504202602 18 180 25.7 32.2 0.00 0.00 0.00 50 1005.4
20260504201602 18 197 27.4 37.0 0.00 0.00 0.00 50 1005.0
20260504200602 18 218 33.8 40.2 0.00 0.00 0.00 50 1004.9
20260504195600 18 209 25.7 37.0 0.00 0.00 0.00 51 1005.3
20260504194559 18 209 35.4 40.2 0.00 0.00 0.00 52 1005.4
20260504193557 18 214 24.1 29.0 0.00 0.00 0.00 52 1005.8
20260504192554 18 209 40.2 48.3 0.00 0.00 0.00 54 1005.7
20260504191549 18 222 45.1 51.5 0.00 0.00 0.00 54 1005.4
20260504190548 18 193 43.5 48.3 0.00 0.00 0.00 54 1005.7
20260504185547 18 183 24.1 29.0 0.00 0.00 0.00 52 1006.1
20260504184545 17 200 33.8 41.8 0.00 0.00 0.00 56 1005.7
20260504183543 17 190 33.8 38.6 0.00 0.00 0.00 57 1006.3
20260504182538 17 150 32.2 37.0 0.00 0.00 0.00 58 1006.3
20260504181538 17 206 32.2 49.9 0.00 0.00 0.00 59 1006.3
20260504180535 17 171 35.4 40.2 0.00 0.00 0.00 60 1006.4
20260504175530 16 196 37.0 41.8 0.00 0.00 0.00 61 1006.4
20260504174525 16 213 30.6 35.4 0.00 0.00 0.00 62 1006.5
20260504173524 16 212 37.0 41.8 0.00 0.00 0.00 60 1006.3
20260504172524 17 191 29.0 35.4 0.00 0.00 0.00 60 1006.8
20260504171523 17 191 33.8 38.6 0.00 0.00 0.00 60 1006.8
20260504170521 17 186 24.1 33.8 0.00 0.00 0.00 60 1007.2
20260504150501 14 218 24.1 27.4 0.00 0.00 0.00 69 1008.1
20260504140452 12 177 24.1 29.0 0.00 0.00 0.00 72 1008.3
20260504130435 11 297 16.1 17.7 0.00 0.00 0.00 76 1008.6
20260504110409 7 199 9.7 17.7 0.00 0.00 0.00 82 1008.9
20260504100354 7 201 9.7 11.3 0.00 0.00 0.00 81 1009.0
20260504081337 8 201 6.4 14.5 0.00 0.00 0.00 77 1009.5
20260504080336 8 201 14.5 16.1 0.00 0.00 0.00 77 1009.5